User: anonymous   Login
Location: Pic du Midi - T1M
(42.9366°N, 0.1426°E)
Time: 15:56:31
(UTC+01:00)
Language:

EO-88 - Orbit

View from above orbital plane
View from above orbital plane
View from above satellite
View from above satellite

Ground track
Ground track

The orbit data is extracted from the following two-line orbital elements,

1 42017U 17008BX  21267.74370933  .00005303  00000-0  19202-3 0  9992
2 42017  97.3067 333.5559 0007514 111.9039 248.3001 15.28789429256424
Epoch (UTC): 24 September 2021 17:50:56
Eccentricity: 0.0007514
inclination: 97.3067°
perigee height: 474 km
apogee height: 484 km
right ascension of ascending node: 333.5559°
argument of perigee: 111.9039°
revolutions per day: 15.28789429
mean anomaly at epoch: 248.3001°
orbit number at epoch: 25642

The dashed part of the orbit path shows where the satellite is in the earth's shadow,  

DLR